TimeCDT,TemperatureF,Dew PointF,Humidity,Sea Level PressureIn,VisibilityMPH,Wind Direction,Wind SpeedMPH,Gust SpeedMPH,PrecipitationIn,Events,Conditions,WindDirDegrees,DateUTC
12:53 AM,57.0,23.0,27,29.73,10.0,NNE,12.7,-,N/A,,Overcast,30,2013-04-15 05:53:00
1:53 AM,55.0,26.1,33,29.74,10.0,NNE,18.4,25.3,0.00,Rain,Light Rain,30,2013-04-15 06:53:00
2:53 AM,54.0,28.0,37,29.73,10.0,NE,17.3,-,0.00,,Overcast,50,2013-04-15 07:53:00
3:53 AM,53.1,30.0,41,29.75,10.0,NE,12.7,-,N/A,,Overcast,50,2013-04-15 08:53:00
4:53 AM,53.1,28.9,40,29.75,10.0,ENE,10.4,-,N/A,,Overcast,60,2013-04-15 09:53:00
5:53 AM,53.1,28.9,40,29.75,10.0,ENE,10.4,-,N/A,,Mostly Cloudy,70,2013-04-15 10:53:00
6:53 AM,53.1,28.0,38,29.76,10.0,East,10.4,-,N/A,,Mostly Cloudy,80,2013-04-15 11:53:00
7:53 AM,53.1,28.0,38,29.80,10.0,ENE,9.2,-,N/A,,Overcast,60,2013-04-15 12:53:00
8:53 AM,53.1,30.0,41,29.83,10.0,NE,9.2,-,N/A,,Overcast,50,2013-04-15 13:53:00
9:53 AM,54.0,30.0,40,29.82,10.0,ENE,13.8,-,N/A,,Overcast,60,2013-04-15 14:53:00
10:53 AM,55.9,28.0,34,29.82,10.0,NE,17.3,23.0,N/A,,Overcast,50,2013-04-15 15:53:00
11:53 AM,57.0,28.9,34,29.83,10.0,ENE,17.3,-,N/A,,Overcast,60,2013-04-15 16:53:00
12:53 PM,57.9,30.9,36,29.83,10.0,NE,16.1,25.3,N/A,,Overcast,50,2013-04-15 17:53:00
1:53 PM,55.9,36.0,47,29.82,10.0,NNE,17.3,-,N/A,,Overcast,20,2013-04-15 18:53:00
2:53 PM,55.9,35.1,45,29.81,10.0,NE,19.6,24.2,N/A,,Overcast,40,2013-04-15 19:53:00
3:53 PM,53.1,34.0,48,29.81,10.0,NNE,16.1,-,N/A,,Overcast,20,2013-04-15 20:53:00
4:53 PM,53.1,34.0,48,29.81,10.0,NNE,12.7,-,N/A,,Mostly Cloudy,20,2013-04-15 21:53:00
5:53 PM,53.1,32.0,45,29.82,10.0,NNE,18.4,-,N/A,,Mostly Cloudy,30,2013-04-15 22:53:00
6:53 PM,52.0,30.0,43,29.85,10.0,NE,16.1,-,N/A,,Mostly Cloudy,50,2013-04-15 23:53:00
7:53 PM,51.1,26.1,38,29.88,10.0,NE,18.4,25.3,N/A,,Mostly Cloudy,40,2013-04-16 00:53:00
8:53 PM,51.1,28.0,41,29.90,10.0,NNE,16.1,-,N/A,,Mostly Cloudy,20,2013-04-16 01:53:00
9:53 PM,51.1,28.0,41,29.93,10.0,NNE,18.4,-,N/A,,Scattered Clouds,30,2013-04-16 02:53:00
10:53 PM,48.9,28.9,46,29.94,10.0,NE,23.0,26.5,N/A,,Mostly Cloudy,50,2013-04-16 03:53:00
11:53 PM,46.9,27.0,46,29.91,10.0,NE,21.9,28.8,N/A,,Mostly Cloudy,50,2013-04-16 04:53:00